Time,TemperatureF,DewpointF,PressureIn,WindDirection,WindDirectionDegrees,WindSpeedMPH,WindSpeedGustMPH,Humidity,HourlyPrecipIn,Conditions,Clouds,dailyrainin,SoftwareType,DateUTC
2013-04-13 00:07:00,34.0,33.5,29.97,NW,315,3.7,-999.0,98,-99.99,,,0.00,Acu-Link.com,2013-04-13 05:07:00,
2013-04-13 00:22:00,33.8,33.3,29.98,WNW,292,2.2,-999.0,98,-99.99,,,0.00,Acu-Link.com,2013-04-13 05:22:00,
2013-04-13 00:37:00,32.9,32.4,29.98,NW,315,2.7,-999.0,98,-99.99,,,0.00,Acu-Link.com,2013-04-13 05:37:00,
2013-04-13 00:53:00,32.4,31.9,29.98,WNW,292,3.2,-999.0,98,-99.99,,,0.00,Acu-Link.com,2013-04-13 05:53:00,
2013-04-13 01:08:00,32.2,31.7,29.98,NW,315,2.7,-999.0,98,-99.99,,,0.00,Acu-Link.com,2013-04-13 06:08:00,
2013-04-13 01:23:00,32.2,31.7,29.98,WNW,292,4.7,-999.0,98,-99.99,,,0.00,Acu-Link.com,2013-04-13 06:23:00,
2013-04-13 01:53:00,31.5,31.0,29.98,NNW,337,1.7,-999.0,98,-99.99,,,0.00,Acu-Link.com,2013-04-13 06:53:00,
2013-04-13 02:09:00,30.6,30.1,29.98,WSW,247,2.7,-999.0,98,-99.99,,,0.00,Acu-Link.com,2013-04-13 07:09:00,
2013-04-13 02:24:00,30.2,29.7,29.98,NW,315,0.0,-999.0,98,-99.99,,,0.00,Acu-Link.com,2013-04-13 07:24:00,
2013-04-13 02:39:00,29.7,29.2,29.98,WNW,292,1.7,-999.0,98,-99.99,,,0.00,Acu-Link.com,2013-04-13 07:39:00,
2013-04-13 02:54:00,29.5,29.0,29.98,WNW,292,1.7,-999.0,98,-99.99,,,0.00,Acu-Link.com,2013-04-13 07:54:00,
2013-04-13 03:10:00,29.1,28.6,29.99,SSW,202,1.7,-999.0,98,-99.99,,,0.00,Acu-Link.com,2013-04-13 08:10:00,
2013-04-13 03:25:00,29.1,28.6,29.98,West,270,2.2,-999.0,98,-99.99,,,0.00,Acu-Link.com,2013-04-13 08:25:00,
2013-04-13 03:40:00,28.9,28.4,29.98,West,270,2.7,-999.0,98,-99.99,,,0.00,Acu-Link.com,2013-04-13 08:40:00,
2013-04-13 03:55:00,28.8,28.3,29.97,South,180,1.7,-999.0,98,-99.99,,,0.00,Acu-Link.com,2013-04-13 08:55:00,
2013-04-13 04:56:00,28.2,27.7,29.97,West,270,2.2,-999.0,98,-99.99,,,0.00,Acu-Link.com,2013-04-13 09:56:00,
2013-04-13 05:27:00,28.4,27.9,29.96,West,270,0.0,-999.0,98,-99.99,,,0.00,Acu-Link.com,2013-04-13 10:27:00,
2013-04-13 05:42:00,28.2,27.7,29.95,WNW,292,1.1,-999.0,98,-99.99,,,0.00,Acu-Link.com,2013-04-13 10:42:00,
2013-04-13 05:57:00,28.0,27.5,29.95,NW,315,1.7,-999.0,98,-99.99,,,0.00,Acu-Link.com,2013-04-13 10:57:00,
2013-04-13 06:13:00,28.2,27.7,29.96,WSW,247,2.7,-999.0,98,-99.99,,,0.00,Acu-Link.com,2013-04-13 11:13:00,
2013-04-13 06:28:00,28.4,27.9,29.96,SSW,202,2.7,-999.0,98,-99.99,,,0.00,Acu-Link.com,2013-04-13 11:28:00,
2013-04-13 06:43:00,28.6,28.1,29.96,WSW,247,3.2,-999.0,98,-99.99,,,0.00,Acu-Link.com,2013-04-13 11:43:00,
2013-04-13 07:13:00,30.6,30.1,29.97,WNW,292,1.7,-999.0,98,-99.99,,,0.00,Acu-Link.com,2013-04-13 12:13:00,
2013-04-13 07:29:00,33.3,32.8,29.96,NNE,22,1.7,-999.0,98,-99.99,,,0.00,Acu-Link.com,2013-04-13 12:29:00,
2013-04-13 07:44:00,35.1,34.6,29.95,South,180,2.2,-999.0,98,-99.99,,,0.00,Acu-Link.com,2013-04-13 12:44:00,
2013-04-13 07:59:00,36.1,35.6,29.97,SW,225,2.2,-999.0,98,-99.99,,,0.00,Acu-Link.com,2013-04-13 12:59:00,
2013-04-13 08:14:00,33.8,33.3,29.96,SSW,202,3.2,-999.0,98,-99.99,,,0.00,Acu-Link.com,2013-04-13 13:14:00,
2013-04-13 09:00:00,37.2,36.7,29.94,East,90,1.7,-999.0,98,-99.99,,,0.00,Acu-Link.com,2013-04-13 14:00:00,
2013-04-13 09:15:00,39.2,38.7,29.89,SSW,202,7.3,-999.0,98,-99.99,,,0.00,Acu-Link.com,2013-04-13 14:15:00,
2013-04-13 09:30:00,39.6,39.1,29.89,South,180,4.7,-999.0,98,-99.99,,,0.00,Acu-Link.com,2013-04-13 14:30:00,
2013-04-13 09:46:00,40.6,40.1,29.87,South,180,4.7,-999.0,98,-99.99,,,0.00,Acu-Link.com,2013-04-13 14:46:00,
2013-04-13 10:01:00,42.6,42.1,29.84,SSW,202,4.7,-999.0,98,-99.99,,,0.00,Acu-Link.com,2013-04-13 15:01:00,
2013-04-13 10:16:00,43.9,43.4,29.82,ESE,112,6.3,-999.0,98,-99.99,,,0.00,Acu-Link.com,2013-04-13 15:16:00,
2013-04-13 11:01:00,45.5,45.0,29.89,South,180,7.3,-999.0,98,-99.99,,,0.00,Acu-Link.com,2013-04-13 16:01:00,
2013-04-13 11:32:00,48.2,47.7,29.88,SE,135,6.3,-999.0,98,-99.99,,,0.00,Acu-Link.com,2013-04-13 16:32:00,
2013-04-13 11:47:00,48.0,47.5,29.88,SE,135,7.8,-999.0,98,-99.99,,,0.00,Acu-Link.com,2013-04-13 16:47:00,
2013-04-13 12:02:00,50.2,49.7,29.88,SSE,157,9.4,-999.0,98,-99.99,,,0.00,Acu-Link.com,2013-04-13 17:02:00,
2013-04-13 12:33:00,49.5,49.0,29.86,South,180,8.9,-999.0,98,-99.99,,,0.00,Acu-Link.com,2013-04-13 17:33:00,
2013-04-13 12:48:00,51.3,50.8,29.84,South,180,6.3,-999.0,98,-99.99,,,0.00,Acu-Link.com,2013-04-13 17:48:00,
2013-04-13 13:03:00,51.3,50.5,29.84,ESE,112,6.8,-999.0,97,-99.99,,,0.00,Acu-Link.com,2013-04-13 18:03:00,
2013-04-13 13:33:00,52.0,51.2,29.81,South,180,6.3,-999.0,97,-99.99,,,0.00,Acu-Link.com,2013-04-13 18:33:00,
2013-04-13 13:49:00,52.5,50.8,29.80,SE,135,5.8,-999.0,94,-99.99,,,0.00,Acu-Link.com,2013-04-13 18:49:00,
2013-04-13 14:04:00,54.5,52.2,29.78,SSW,202,11.4,-999.0,92,-99.99,,,0.00,Acu-Link.com,2013-04-13 19:04:00,
2013-04-13 14:19:00,55.4,51.9,29.78,SSE,157,10.4,-999.0,88,-99.99,,,0.00,Acu-Link.com,2013-04-13 19:19:00,
2013-04-13 14:34:00,55.2,52.0,29.76,SSE,157,13.0,-999.0,89,-99.99,,,0.00,Acu-Link.com,2013-04-13 19:34:00,
2013-04-13 14:50:00,54.0,50.5,29.77,SSE,157,8.3,-999.0,88,-99.99,,,0.00,Acu-Link.com,2013-04-13 19:50:00,
2013-04-13 15:05:00,54.1,50.9,29.76,ESE,112,6.8,-999.0,89,-99.99,,,0.00,Acu-Link.com,2013-04-13 20:05:00,
2013-04-13 15:20:00,54.5,51.0,29.75,ESE,112,8.9,-999.0,88,-99.99,,,0.00,Acu-Link.com,2013-04-13 20:20:00,
2013-04-13 15:35:00,54.5,51.0,29.73,South,180,7.8,-999.0,88,-99.99,,,0.00,Acu-Link.com,2013-04-13 20:35:00,
2013-04-13 15:50:00,56.5,52.7,29.73,ESE,112,6.8,-999.0,87,-99.99,,,0.00,Acu-Link.com,2013-04-13 20:50:00,
2013-04-13 16:06:00,56.1,52.0,29.72,SE,135,12.5,-999.0,86,-99.99,,,0.00,Acu-Link.com,2013-04-13 21:06:00,
2013-04-13 16:21:00,56.8,52.3,29.72,ESE,112,9.4,-999.0,85,-99.99,,,0.00,Acu-Link.com,2013-04-13 21:21:00,
2013-04-13 16:36:00,57.4,52.3,29.71,ESE,112,15.5,-999.0,83,-99.99,,,0.00,Acu-Link.com,2013-04-13 21:36:00,
2013-04-13 16:51:00,56.8,52.3,29.70,SE,135,9.4,-999.0,85,-99.99,,,0.00,Acu-Link.com,2013-04-13 21:51:00,
2013-04-13 17:06:00,57.2,52.1,29.69,ESE,112,10.9,-999.0,83,-99.99,,,0.00,Acu-Link.com,2013-04-13 22:06:00,
2013-04-13 17:22:00,56.1,51.3,29.68,South,180,13.5,-999.0,84,-99.99,,,0.00,Acu-Link.com,2013-04-13 22:22:00,
2013-04-13 17:37:00,56.3,51.5,29.68,East,90,9.9,-999.0,84,-99.99,,,0.00,Acu-Link.com,2013-04-13 22:37:00,
2013-04-13 17:52:00,55.8,51.4,29.68,SSE,157,9.4,-999.0,85,-99.99,,,0.00,Acu-Link.com,2013-04-13 22:52:00,
2013-04-13 18:07:00,55.8,51.4,29.67,SE,135,13.0,-999.0,85,-99.99,,,0.00,Acu-Link.com,2013-04-13 23:07:00,
2013-04-13 18:23:00,55.6,51.2,29.67,ESE,112,6.8,-999.0,85,-99.99,,,0.00,Acu-Link.com,2013-04-13 23:23:00,
2013-04-13 18:38:00,55.4,51.3,29.66,ESE,112,7.8,-999.0,86,-99.99,,,0.00,Acu-Link.com,2013-04-13 23:38:00,
2013-04-13 18:53:00,55.4,51.3,29.67,East,90,5.8,-999.0,86,-99.99,,,0.00,Acu-Link.com,2013-04-13 23:53:00,
2013-04-13 19:08:00,54.5,51.0,29.66,East,90,6.3,-999.0,88,-99.99,,,0.00,Acu-Link.com,2013-04-14 00:08:00,
2013-04-13 19:23:00,54.0,51.1,29.67,ESE,112,6.3,-999.0,90,-99.99,,,0.00,Acu-Link.com,2013-04-14 00:23:00,
2013-04-13 19:39:00,53.4,52.6,29.65,SE,135,6.3,-999.0,97,-99.99,,,0.00,Acu-Link.com,2013-04-14 00:39:00,
2013-04-13 19:54:00,52.9,52.4,29.63,ESE,112,10.4,-999.0,98,-99.99,,,0.00,Acu-Link.com,2013-04-14 00:54:00,
2013-04-13 20:24:00,51.6,51.1,29.63,ESE,112,7.3,-999.0,98,-99.99,,,0.00,Acu-Link.com,2013-04-14 01:24:00,
2013-04-13 20:39:00,51.1,50.6,29.63,ESE,112,9.9,-999.0,98,-99.99,,,0.00,Acu-Link.com,2013-04-14 01:39:00,
2013-04-13 20:55:00,50.5,50.0,29.63,ESE,112,9.9,-999.0,98,-99.99,,,0.00,Acu-Link.com,2013-04-14 01:55:00,
2013-04-13 21:10:00,50.2,49.7,29.62,ESE,112,14.5,-999.0,98,-99.99,,,0.00,Acu-Link.com,2013-04-14 02:10:00,
2013-04-13 21:25:00,49.6,49.1,29.63,SE,135,10.9,-999.0,98,-99.99,,,0.00,Acu-Link.com,2013-04-14 02:25:00,
2013-04-13 21:40:00,48.9,48.4,29.64,ESE,112,11.4,-999.0,98,-99.99,,,0.00,Acu-Link.com,2013-04-14 02:40:00,
2013-04-13 21:56:00,48.6,48.1,29.64,SSE,157,11.4,-999.0,98,-99.99,,,0.00,Acu-Link.com,2013-04-14 02:56:00,
2013-04-13 22:11:00,48.2,47.7,29.63,SSE,157,11.9,-999.0,98,-99.99,,,0.00,Acu-Link.com,2013-04-14 03:11:00,
2013-04-13 22:56:00,47.3,46.8,29.61,ESE,112,9.9,-999.0,98,-99.99,,,0.00,Acu-Link.com,2013-04-14 03:56:00,
2013-04-13 23:12:00,47.3,46.8,29.61,ESE,112,9.9,-999.0,98,-99.99,,,0.00,Acu-Link.com,2013-04-14 04:12:00,
2013-04-13 23:27:00,47.1,46.6,29.59,SE,135,11.4,-999.0,98,-99.99,,,0.00,Acu-Link.com,2013-04-14 04:27:00,
2013-04-13 23:42:00,47.1,46.6,29.58,SE,135,11.9,-999.0,98,-99.99,,,0.00,Acu-Link.com,2013-04-14 04:42:00,
2013-04-13 23:57:00,47.3,46.8,29.57,ESE,112,12.5,-999.0,98,-99.99,,,0.00,Acu-Link.com,2013-04-14 04:57:00,